Location: Chippewa Lake
(41.0698°N, 81.9010°W)
Time: 01:15:52
(UTC+00:00)

USA 307 - Pass Details

Date: 09 May 2021
Orbit: 566 x 577 km, 54.0° (Epoch: 10 May)

Event Time Altitude Azimuth Distance (km) Brightness Sun altitude
Rises 03:29:11 0° 314° (NW) 2,778 7.6 -25.7°
Reaches altitude 10° 03:31:38 10° 325° (NW) 1,880 6.6 -26.0°
Maximum altitude 03:35:27 31° 28° (NNE) 1,026 4.4 -26.3°
Enters shadow 03:35:47 30° 37° (NE) 1,035 4.3 -26.4°
